CW8081 Weather Reports


time (UTC)temp
F
wind
direction
speed
knots
gust
knots
rain 1hr
in
rain 24hr
in
rain mn
in
humidity
%
barometer
mb
20260906161105 96 359 0.0 0.0 0.00 0.00 0.00 32 1015.7
20260906160605 96 356 0.0 0.0 0.00 0.00 0.00 32 1015.6
20260906160106 96 6 0.0 0.0 0.00 0.00 0.00 33 1015.6
20260906154605 97 0 0.0 0.0 0.00 0.00 0.00 34 1015.5
20260906154105 97 353 0.0 0.0 0.00 0.00 0.00 34 1015.5
20260906153604 97 0 0.0 0.0 0.00 0.00 0.00 34 1015.5
20260906153105 98 359 0.0 0.0 0.00 0.00 0.00 34 1015.4
20260906151105 98 356 0.0 0.0 0.00 0.00 0.00 35 1015.3
20260906150605 98 352 0.0 0.0 0.00 0.00 0.00 34 1015.4
20260906143605 98 297 0.0 0.0 0.00 0.00 0.00 33 1015.6
20260906141605 99 336 0.0 0.0 0.00 0.00 0.00 33 1015.6
20260906140605 99 339 0.0 0.0 0.00 0.00 0.00 33 1015.6
20260906140106 98 325 0.0 0.0 0.00 0.00 0.00 33 1015.6
20260906130604 98 318 0.0 0.0 0.00 0.00 0.00 33 1015.7
20260906130106 98 322 0.0 0.0 0.00 0.00 0.00 33 1015.7
20260906124605 98 356 0.0 0.0 0.00 0.00 0.00 34 1015.8
20260906124105 98 356 0.0 0.0 0.00 0.00 0.00 34 1015.8
20260906123105 98 301 0.0 0.0 0.00 0.00 0.00 34 1015.9
20260906121605 98 336 0.0 0.0 0.00 0.00 0.00 34 1015.9
20260906121105 98 307 0.0 0.0 0.00 0.00 0.00 35 1016.0
20260906120606 98 316 0.0 0.0 0.00 0.00 0.00 35 1016.0
20260906114106 97 328 0.0 0.0 0.00 0.00 0.00 35 1016.2
20260906110106 96 317 0.0 0.0 0.00 0.00 0.00 35 1016.4
20260906104605 96 312 0.0 0.0 0.00 0.00 0.00 36 1016.4
20260906101605 95 350 0.9 17.4 0.00 0.00 0.00 37 1016.6
20260906101105 95 348 0.0 2.6 0.00 0.00 0.00 37 1016.6
20260906100106 94 336 0.0 1.7 0.00 0.00 0.00 37 1016.6
20260906094105 93 308 0.0 0.0 0.00 0.00 0.00 39 1016.9
20260906084105 89 315 0.0 0.0 0.00 0.00 0.00 42 1017.0
20260906083605 89 356 0.0 0.0 0.00 0.00 0.00 43 1017.0
20260906083105 89 306 0.0 0.0 0.00 0.00 0.00 42 1017.0
20260906081605 88 326 0.0 0.0 0.00 0.00 0.00 42 1017.0
20260906081105 88 356 0.0 0.0 0.00 0.00 0.00 43 1016.8
20260906080605 87 4 0.0 0.0 0.00 0.00 0.00 44 1016.8
20260906080106 87 319 0.0 0.0 0.00 0.00 0.00 44 1016.8
20260906071605 83 1 0.0 0.0 0.00 0.00 0.00 52 1016.8
20260906071106 82 350 0.0 0.0 0.00 0.00 0.00 55 1016.8
20260906070605 81 358 0.0 0.0 0.00 0.00 0.00 57 1016.8
20260906064605 78 0 0.0 0.0 0.00 0.00 0.00 61 1016.7
20260906064106 78 343 0.0 0.0 0.00 0.00 0.00 63 1016.7
20260906063605 77 357 0.0 0.0 0.00 0.00 0.00 64 1016.5
20260906063105 77 315 0.0 0.0 0.00 0.00 0.00 65 1016.5
20260906061605 75 0 0.0 0.0 0.00 0.00 0.00 69 1016.5
20260906061106 74 0 0.0 0.0 0.00 0.00 0.00 70 1016.5
20260906060106 74 0 0.0 0.0 0.00 0.00 0.00 72 1016.5
20260906053605 72 0 0.0 0.0 0.00 0.00 0.00 73 1016.1
20260906051605 70 0 0.0 0.0 0.00 0.00 0.00 71 1016.1
20260906050605 70 0 0.0 0.0 0.00 0.00 0.00 71 1016.1
20260906043105 70 0 0.0 0.0 0.00 0.00 0.00 69 1015.8
20260906041105 70 0 0.0 0.0 0.00 0.00 0.00 68 1015.7
20260906040605 70 0 0.0 0.0 0.00 0.00 0.00 68 1015.5
20260906034105 70 0 0.0 0.0 0.00 0.00 0.00 67 1015.3
20260906033105 70 0 0.0 0.0 0.00 0.00 0.00 67 1015.3
20260906031105 71 0 0.0 0.0 0.00 0.00 0.00 66 1015.0
20260906030106 71 0 0.0 0.0 0.00 0.00 0.00 65 1015.0
20260906024605 72 0 0.0 0.0 0.00 0.00 0.00 62 1015.0
20260906023605 72 0 0.0 0.0 0.00 0.00 0.00 60 1015.0
20260906023105 72 0 0.0 0.0 0.00 0.00 0.00 60 1015.0
20260906021605 72 0 0.0 0.0 0.00 0.00 0.00 60 1015.0
20260906021105 72 0 0.0 0.0 0.00 0.00 0.00 59 1015.0
20260906020106 72 0 0.0 0.0 0.00 0.00 0.00 59 1015.0
20260906014105 72 0 0.0 0.0 0.00 0.00 0.00 61 1015.0
20260906013605 73 0 0.0 0.0 0.00 0.00 0.00 63 1015.0
20260906013105 73 0 0.0 0.0 0.00 0.00 0.00 63 1015.0
20260906011605 73 0 0.0 0.0 0.00 0.00 0.00 62 1015.0
20260906011105 72 0 0.0 0.0 0.00 0.00 0.00 61 1014.9
20260906004605 73 0 0.0 0.0 0.00 0.00 0.00 61 1014.9
20260906003605 73 0 0.0 0.0 0.00 0.00 0.00 60 1014.9
20260906003105 73 0 0.0 0.0 0.00 0.00 0.00 60 1014.9
20260906000106 74 0 0.0 0.0 0.00 0.00 0.00 59 1014.9
20260905234605 73 0 0.0 0.0 0.00 0.00 0.00 59 1015.3
20260905233605 73 0 0.0 0.0 0.00 0.00 0.00 60 1015.3
20260905231104 73 0 0.0 0.0 0.00 0.00 0.00 60 1015.3
20260905230106 73 0 0.0 0.0 0.00 0.00 0.00 60 1015.3
20260905224605 74 0 0.0 0.0 0.00 0.00 0.00 60 1015.3
20260905223606 74 0 0.0 0.0 0.00 0.00 0.00 59 1015.3
20260905223105 74 0 0.0 0.0 0.00 0.00 0.00 59 1015.3
20260905221105 75 0 0.0 0.0 0.00 0.00 0.00 57 1015.3
20260905213105 76 0 0.0 0.0 0.00 0.00 0.00 56 1015.4
20260905211112 76 0 0.0 0.0 0.00 0.00 0.00 55 1015.5
20260905210105 77 0 0.0 0.0 0.00 0.00 0.00 56 1015.7
20260905204105 78 0 0.0 0.0 0.00 0.00 0.00 54 1015.7
20260905203105 78 0 0.0 0.0 0.00 0.00 0.00 53 1015.6
20260905201605 78 0 0.0 0.0 0.00 0.00 0.00 53 1015.6
20260905201104 79 0 0.0 0.0 0.00 0.00 0.00 52 1015.6
20260905200605 79 0 0.0 0.0 0.00 0.00 0.00 52 1015.6
20260905194605 79 0 0.0 0.0 0.00 0.00 0.00 53 1015.6
20260905194104 79 0 0.0 0.0 0.00 0.00 0.00 53 1015.6
20260905190105 81 0 0.0 0.0 0.00 0.00 0.00 51 1015.6
20260905184105 82 0 0.0 0.0 0.00 0.00 0.00 49 1015.4
20260905183605 82 0 0.0 0.0 0.00 0.00 0.00 49 1015.4
20260905180604 83 0 0.0 0.0 0.00 0.00 0.00 47 1015.0
20260905174105 84 0 0.0 0.0 0.00 0.00 0.00 47 1015.0
20260905173605 84 0 0.0 0.0 0.00 0.00 0.00 46 1014.6
20260905171105 86 0 0.0 0.0 0.00 0.00 0.00 47 1014.6
20260905170605 86 0 0.0 0.0 0.00 0.00 0.00 47 1014.6
20260905170106 86 0 0.0 0.0 0.00 0.00 0.00 47 1014.6
20260905164605 87 0 0.0 0.0 0.00 0.00 0.00 45 1014.6
20260905164105 87 0 0.0 0.0 0.00 0.00 0.00 44 1014.6
20260905163605 87 0 0.0 0.0 0.00 0.00 0.00 43 1014.6
20260905163105 88 0 0.0 0.0 0.00 0.00 0.00 44 1014.6